THOR ABLESTAR DEB, 3124

Orbit data source: Space-Track

THOR ABLESTAR DEB, 3124 is space debris in LEO originally from a launch on Thu, 29 Jun 1961 UTC launched from the Air Force Eastern Test Range (AFETR). Debris objects in space refer to the collection of defunct objects orbiting the Earth. Examples of debris include non-operational satellites, rocket bodies, and fragments generated from explosions, collisions, or faulty payload assembly.

Loading next visibility...
THOR ABLESTAR DEB details
Identifier
3124, 1961-015HX
Orbit
LEO
Last TLE update1 day ago
Origin
Flag of USUSAF SSD (US)
ManufacturerUnknown
MissionSpacecraft
Bus & MotorUnknown
MassUnknown
Launch date (UTC)
1961-06-29 (63 years ago)
Launch vehicleUnknown
Launch site
Air Force Eastern Test Range (AFETR)
Object type
Payload
Rocket body
Debris
Shape & HBRUnknown
Radar Cross SectionSmall (<0.1 m²)

Expand to show TLE details & history

TLE from 1 day ago
0 THOR ABLESTAR DEB
1 03124U 61015HX  24355.62620962  .00001990  00000-0  21193-2 0  9992
2 03124  66.9859  87.9574 0326541  98.5152 265.3054 13.55070824 95415
Epoch: 2024-12-20T15:01Z
Definitive object data (Epoch: 2024-12-20T15:01:44.511Z)
Latitude0.00007°
Longitude132.83295°
Altitude1,083.418 km
Speed7.297 km/s
True Right ascension05h 51m 49s
True Declination0° 00' 00"
Sunlit
Object was in full shadow at TLE epoch
Visualization TLE readout
Latitude65.21773°
Longitude-115.79416°
Altitude821.516 km
Speed7.57 km/s
Apparent Right ascension05h 36m 12s
Apparent Declination41° 23' 27"
Sunlit
Object is in daylight
Visualization observer readout
Local Sidereal Time15:20:25
Azimuth335.194° NNW
Elevation-3.042°
Doppler factor1
Orbital elements
Apogee altitude1,294.684 km
Perigee altitude809.432 km
Semi-major axis7,430.195 km
Eccentricity0.0326541
Inclination66.9859°
RAAN87.9574°
Arg. of periapsis98.5152°
True anomaly261.59109°
Mean anomaly265.3054°
Eccentric anomaly263.44668°
Mean motion3.38878 °/min
BSTAR0.0021193
Orbital period106.23 mins
Loading maneuver chart data...

THOR ABLESTAR DEB Visibility forecast

Observer location: undefined°, undefined

Span
Click to sort rows by Start time (UTC) header in descending order
Start Az.
Max El. time (UTC)
Max El. Az.
Max El.
End time (UTC)
End Az.
10 mins2024-12-21 16:21:59.007Z348.299° N2024-12-21 16:26:59.007Z64.101° ENE31.454°2024-12-21 16:31:59.007Z122.242° SE
8 mins2024-12-21 18:11:59.007Z302° NW2024-12-21 18:15:59.007Z243.163° WSW26.486°2024-12-21 18:19:59.007Z195.262° SSW
4 mins2024-12-22 06:08:59.007Z120.707° SE2024-12-22 06:10:59.007Z99.896° ESE12.985°2024-12-22 06:12:59.007Z79.384° E
10 mins2024-12-22 07:53:59.007Z210.391° SW2024-12-22 07:58:59.007Z263.546° W44.731°2024-12-22 08:03:59.007Z26.877° NE
5 mins2024-12-22 09:46:59.007Z293.779° NW2024-12-22 09:48:59.007Z316.134° NNW14.375°2024-12-22 09:51:59.007Z349.649° N
6 mins2024-12-22 15:23:59.007Z12.443° NNE2024-12-22 15:26:59.007Z51.074° ENE17.555°2024-12-22 15:29:59.007Z85.248° E
|